Tracking 29892 objects as of 21-Nov-2024
HD Live streaming from Space Station
objects crossing your sky now

STARLINK-1403

Track STARLINK-1403 now!
10-day predictions
STARLINK-1403 is classified as:


NORAD ID: 45701
Int'l Code: 2020-035AW
Perigee: 553.1 km
Apogee: 555.3 km
Inclination: 53.1 °
Period: 95.6 minutes
Semi major axis: 6925 km
RCS: Unknown
Launch date: June 4, 2020
Source: United States (US)
Launch site: AIR FORCE EASTERN TEST RANGE (AFETR)
Your satellite tracking list
Your tracking list is empty




NASA's NSSDC Master Catalog

Two Line Element Set (TLE):
1 45701U 20035AW  24325.55954676  .00020586  00000-0  13950-2 0  9991
2 45701  53.0550   5.0750 0001572  89.6912 270.4257 15.06450116247294
Source of the keplerian elements: AFSPC